DW2921 Weather Reports


Display with metric or nautical units.
time (UTC)temp
F
wind
direction
speed
MPH
gust
MPH
rain 1hr
in
rain 24hr
in
rain mn
in
humidity
%
barometer
mb
20260904223100 96 8 0.0 0.0 0.00 0.00 0.00 50 1013.0
20260904222101 96 8 0.0 0.0 0.00 0.00 0.00 50 1013.0
20260904221101 97 8 0.0 0.0 0.00 0.00 0.00 50 1013.0
20260904215100 97 8 0.0 0.0 0.00 0.00 0.00 50 1013.0
20260904214100 97 8 0.0 0.0 0.00 0.00 0.00 50 1013.0
20260904212100 98 8 0.0 0.0 0.00 0.00 0.00 50 1013.0
20260904211100 97 8 0.0 0.0 0.00 0.00 0.00 50 1013.0
20260904205101 97 8 0.0 0.0 0.00 0.00 0.00 50 1013.0
20260904204101 97 355 0.0 0.0 0.00 0.00 0.00 50 1013.0
20260904203101 98 3 0.0 0.0 0.00 0.00 0.00 50 1013.0
20260904202101 99 355 0.0 0.0 0.00 0.00 0.00 50 1013.0
20260904201100 100 43 0.0 0.0 0.00 0.00 0.00 50 1013.0
20260904200101 99 67 0.0 0.0 0.00 0.00 0.00 50 1013.0
20260904195101 98 102 0.0 0.0 0.00 0.00 0.00 50 1013.0
20260904193101 99 42 0.0 0.0 0.00 0.00 0.00 50 1013.0
20260904192101 99 80 0.0 0.0 0.00 0.00 0.00 50 1013.0
20260904191101 98 260 0.0 0.0 0.00 0.00 0.00 50 1013.0
20260904190101 98 79 0.0 0.0 0.00 0.00 0.00 50 1013.0
20260904185100 97 66 0.0 0.0 0.00 0.00 0.00 50 1013.0
20260904183101 95 97 0.0 0.0 0.00 0.00 0.00 50 1013.0
20260904182101 92 226 0.0 0.0 0.00 0.00 0.00 50 1013.0
20260904181101 91 348 0.0 0.0 0.00 0.00 0.00 50 1013.0
20260904175101 92 348 0.0 0.0 0.00 0.00 0.00 50 1013.0
20260904174101 93 346 0.0 0.0 0.00 0.00 0.00 50 1013.0
20260904173100 95 72 0.0 0.0 0.00 0.00 0.00 50 1013.0
20260904172101 94 229 0.0 0.0 0.00 0.00 0.00 50 1013.0
20260904171101 93 199 0.0 0.0 0.00 0.00 0.00 50 1013.0
20260904170101 90 196 0.0 0.0 0.00 0.00 0.00 50 1013.0
20260904165101 91 281 0.0 0.0 0.00 0.00 0.00 50 1013.0
20260904163101 91 238 0.0 0.0 0.00 0.00 0.00 50 1013.0
20260904162101 91 236 0.0 0.0 0.00 0.00 0.00 50 1013.0
20260904161100 90 222 0.0 0.0 0.00 0.00 0.00 50 1013.0
20260904155100 89 206 0.0 0.0 0.00 0.00 0.00 50 1013.0
20260904153101 87 212 0.0 0.0 0.00 0.00 0.00 50 1013.0
20260904152100 87 184 0.0 0.0 0.00 0.00 0.00 50 1013.0
20260904151101 86 237 0.0 0.0 0.00 0.00 0.00 50 1013.0
20260904144101 85 209 0.0 0.0 0.00 0.00 0.00 50 1013.0
20260904142101 83 269 0.0 0.0 0.00 0.00 0.00 50 1013.0
20260904141101 82 272 0.0 0.0 0.00 0.00 0.00 50 1013.0
20260904135101 81 48 0.0 0.0 0.00 0.00 0.00 50 1013.0
20260904134100 80 48 0.0 0.0 0.00 0.00 0.00 50 1013.0
20260904133100 80 48 0.0 0.0 0.00 0.00 0.00 50 1013.0
20260904131100 78 49 0.0 0.0 0.00 0.00 0.00 50 1013.0
20260904125101 77 48 0.0 0.0 0.00 0.00 0.00 50 1013.0
20260904124101 77 49 0.0 0.0 0.00 0.00 0.00 50 1013.0
20260904123101 76 48 0.0 0.0 0.00 0.00 0.00 50 1013.0
20260904122101 76 49 0.0 0.0 0.00 0.00 0.00 50 1013.0
20260904121101 76 49 0.0 0.0 0.00 0.00 0.00 50 1013.0
20260904115101 75 49 0.0 0.0 0.00 0.00 0.00 50 1013.0
20260904113101 75 49 0.0 0.0 0.00 0.00 0.00 50 1013.0
20260904112101 75 49 0.0 0.0 0.00 0.00 0.00 50 1013.0
20260904111101 75 49 0.0 0.0 0.00 0.00 0.00 50 1013.0
20260904105101 75 49 0.0 0.0 0.00 0.00 0.00 50 1013.0
20260904104101 76 49 0.0 0.0 0.00 0.00 0.00 50 1013.0
20260904103102 76 49 0.0 0.0 0.00 0.00 0.00 50 1013.0
20260904102101 76 49 0.0 0.0 0.00 0.00 0.00 50 1013.0
20260904101101 76 49 0.0 0.0 0.00 0.00 0.00 50 1013.0
20260904095101 76 49 0.0 0.0 0.00 0.00 0.00 50 1013.0
20260904092101 77 49 0.0 0.0 0.00 0.00 0.00 50 1013.0
20260904091101 77 49 0.0 0.0 0.00 0.00 0.00 50 1013.0
20260904085102 77 49 0.0 0.0 0.00 0.00 0.00 50 1013.0
20260904083101 78 48 0.0 0.0 0.00 0.00 0.00 50 1013.0
20260904082101 78 49 0.0 0.0 0.00 0.00 0.00 50 1013.0
20260904081101 78 49 0.0 0.0 0.00 0.00 0.00 50 1013.0
20260904075101 78 49 0.0 0.0 0.00 0.00 0.00 50 1013.0
20260904074101 79 49 0.0 0.0 0.00 0.00 0.00 50 1013.0
20260904073101 79 49 0.0 0.0 0.00 0.00 0.00 50 1013.0
20260904072101 79 48 0.0 0.0 0.00 0.00 0.00 50 1013.0
20260904071101 79 48 0.0 0.0 0.00 0.00 0.00 50 1013.0
20260904064101 80 48 0.0 0.0 0.00 0.00 0.00 50 1013.0
20260904063101 80 48 0.0 0.0 0.00 0.00 0.00 50 1013.0
20260904062101 80 48 0.0 0.0 0.00 0.00 0.00 50 1013.0
20260904061101 80 48 0.0 0.0 0.00 0.00 0.00 50 1013.0
20260904054101 81 49 0.0 0.0 0.00 0.00 0.00 50 1013.0
20260904053102 81 49 0.0 0.0 0.00 0.00 0.00 50 1013.0
20260904052102 82 48 0.0 0.0 0.00 0.00 0.00 50 1013.0
20260904051101 82 48 0.0 0.0 0.00 0.00 0.00 50 1013.0
20260904045101 82 49 0.0 0.0 0.00 0.00 0.00 50 1013.0
20260904044102 83 48 0.0 0.0 0.00 0.00 0.00 50 1013.0
20260904043101 83 49 0.0 0.0 0.00 0.00 0.00 50 1013.0
20260904041101 83 48 0.0 0.0 0.00 0.00 0.00 50 1013.0
20260904035102 84 48 0.0 0.0 0.00 0.00 0.00 50 1013.0
20260904033101 84 48 0.0 0.0 0.00 0.00 0.00 50 1013.0
20260904032101 85 49 0.0 0.0 0.00 0.00 0.00 50 1013.0
20260904031101 85 48 0.0 0.0 0.00 0.00 0.00 50 1013.0
20260904025101 86 48 0.0 0.0 0.00 0.00 0.00 50 1013.0
20260904023101 86 48 0.0 0.0 0.00 0.00 0.00 50 1013.0
20260904022101 86 48 0.0 0.0 0.00 0.00 0.00 50 1013.0
20260904021101 87 48 0.0 0.0 0.00 0.00 0.00 50 1013.0
20260904015102 87 48 0.0 0.0 0.00 0.00 0.00 50 1013.0
20260904014101 88 48 0.0 0.0 0.00 0.00 0.00 50 1013.0
20260904012101 89 48 0.0 0.0 0.00 0.00 0.00 50 1013.0
20260904011101 89 48 0.0 0.0 0.00 0.00 0.00 50 1013.0
20260904005102 90 48 0.0 0.0 0.00 0.00 0.00 50 1013.0
20260904004101 90 49 0.0 0.0 0.00 0.00 0.00 50 1013.0
20260904003102 91 48 0.0 0.0 0.00 0.00 0.00 50 1013.0
20260904002101 91 48 0.0 0.0 0.00 0.00 0.00 50 1013.0
20260904001101 92 48 0.0 0.0 0.00 0.00 0.00 50 1013.0
20260903235101 92 49 0.0 0.0 0.00 0.00 0.00 50 1013.0
20260903234101 93 49 0.0 0.0 0.00 0.00 0.00 50 1013.0
20260903233102 94 49 0.0 0.0 0.00 0.00 0.00 50 1013.0
20260903232101 94 48 0.0 0.0 0.00 0.00 0.00 50 1013.0
20260903231101 95 49 0.0 0.0 0.00 0.00 0.00 50 1013.0
20260903225102 97 49 0.0 0.0 0.00 0.00 0.00 50 1013.0
20260903224102 97 48 0.0 0.0 0.00 0.00 0.00 50 1013.0